Voltar ao catálogo

STARLINK-30908

AtivoComunicaçõesVLEO
NORAD 58424·PAYLOAD·🇺🇸 United States

Lançado Nov 22, 2023 de Cape Canaveral Space Force Station

Loading…

Próximas Passagens (próximas 24 horas)

TLE

AtualizadoSource: CelesTrak SupGP

Época: Sep 14, 2026, 22:38 UTC

1 58424C 23180Y   26257.94354167  .00059570  00000+0  21575-2 0  2572
2 58424  43.0006  63.5565 0001411 276.2924 348.4006 15.27551256    12

Acompanhe STARLINK-30908 em tempo real com AllMySat

Download on the App Store